Вернуться в каталог

NOAA 16 DEB

АктивенSSO
NORAD 41351·DEBRIS·🇺🇸 United States

Запущен Sep 21, 2000 с Vandenberg Space Force Base

Loading…

Ближайшие Пролёты (ближайшие 24 часа)

TLE

СвежийSource: Space-Track

Эпоха: Sep 13, 2026, 07:38 UTC

1 41351U 00055HU  26256.31837136  .00002005  00000-0  85119-3 0  9991
2 41351  98.6179 288.9604 0008045 249.7438 110.2878 14.26430518550952

Отслеживайте NOAA 16 DEB в реальном времени с AllMySat

Download on the App Store